Weather History for Wallops Island, VA

Change the Weather History Date:

Friday, May 10, 2013

  Actual Average Record
Temperature  
Mean Temperature 71 °F 61 °F  
Max Temperature 82 °F 70 °F 86 °F (2000)
Min Temperature 60 °F 52 °F 39 °F (1986)
Degree Days  
Heating Degree Days 0    
Month to date heating degree days 60  
Since 1 July heating degree days 3720  
Cooling Degree Days 6    
Month to date cooling degree days 8  
Year to date cooling degree days 29  
Growing Degree Days 21 (Base 50)    
Moisture  
Dew Point 56 °F    
Average Humidity 64    
Maximum Humidity 78    
Minimum Humidity 49    
Precipitation  
Precipitation 0.00 in 0.08 in 0.49 in (2014)
Month to date precipitation 0.86 0.88  
Year to date precipitation 17.54 13.75  
Sea Level Pressure  
Sea Level Pressure 29.99 in    
Wind  
Wind Speed 10 mph (SW)    
Max Wind Speed 21 mph    
Max Gust Speed 25 mph    
Visibility 10 miles    
Events      
T = Trace of Precipitation, MM = Missing Value Source: NWS Daily Summary

Daily Weather History Graph

Daily Weather History Graph

Search for Another Location

Airport:

Trip Planner

Search our weather history database for the weather conditions in past years. The results will help you decide how hot, cold, wet, or windy it might be!

Date:

Astronomy

May. 10, 2013 Rise Set
Actual Time 5:55 AM EDT 8:01 PM EDT
Civil Twilight 5:26 AM EDT 8:30 PM EDT
Nautical Twilight 4:51 AM EDT 9:05 PM EDT
Astronomical Twilight 4:13 AM EDT 9:44 PM EDT
Moon 6:18 AM EDT (5/10) 8:48 PM EDT (5/10)
Length of Visible Light 15h 03m
Length of Day
14h 05m
New Moon, 0% of the Moon is Illuminated
May 10
New Moon
May 18
First Quarter
May 25
Full
May 31
Last Quarter
Jun 8
New

Hourly Weather History & Observations

Time (EDT) Temp. Heat Index Dew Point Humidity Pressure Visibility Wind Dir Wind Speed Gust Speed Precip Events Conditions
12:54 AM 62.1 °F - 54.0 °F 75% 30.01 in 10.0 mi WSW 4.6 mph - N/A   Clear
1:54 AM 63.0 °F - 54.0 °F 72% 30.01 in 10.0 mi West 4.6 mph - N/A   Clear
2:54 AM 63.0 °F - 53.1 °F 70% 30.01 in 10.0 mi West 6.9 mph - N/A   Partly Cloudy
3:54 AM 64.0 °F - 53.1 °F 67% 30.01 in 10.0 mi West 5.8 mph - N/A   Clear
4:54 AM 64.9 °F - 53.1 °F 65% 30.00 in 10.0 mi West 5.8 mph - N/A   Partly Cloudy
5:54 AM 64.0 °F - 53.1 °F 67% 30.00 in 10.0 mi West 3.5 mph - N/A   Clear
6:54 AM 63.0 °F - 55.0 °F 75% 30.01 in 10.0 mi Calm Calm - N/A   Clear
7:54 AM 70.0 °F - 55.9 °F 61% 30.02 in 10.0 mi WSW 6.9 mph - N/A   Overcast
8:54 AM 73.0 °F - 57.9 °F 59% 30.02 in 10.0 mi NW 6.9 mph - N/A   Overcast
9:54 AM 75.9 °F - 57.9 °F 54% 30.02 in 10.0 mi Variable 3.5 mph - N/A   Overcast
10:54 AM 79.0 °F - 59.0 °F 50% 30.03 in 10.0 mi Variable 4.6 mph - N/A   Overcast
11:54 AM 80.1 °F 80.7 °F 59.0 °F 48% 30.01 in 10.0 mi SE 6.9 mph - N/A   Mostly Cloudy
12:54 PM 80.1 °F 81.1 °F 61.0 °F 52% 30.01 in 10.0 mi South 11.5 mph - N/A   Mostly Cloudy
1:54 PM 78.1 °F - 60.1 °F 54% 30.00 in 10.0 mi SSW 11.5 mph - N/A   Mostly Cloudy
2:54 PM 81.0 °F 81.7 °F 61.0 °F 50% 29.99 in 10.0 mi South 11.5 mph - N/A   Clear
3:54 PM 78.1 °F - 60.1 °F 54% 29.98 in 10.0 mi South 12.7 mph - N/A   Clear
4:54 PM 77.0 °F - 57.9 °F 52% 29.98 in 10.0 mi SSW 11.5 mph - N/A   Clear
5:54 PM 73.4 °F - 57.2 °F 57% 29.98 in 10.0 mi SSW 16.1 mph - N/A   Clear
6:54 PM 72.0 °F - 55.0 °F 55% 29.96 in 10.0 mi SSW 16.1 mph - N/A   Clear
7:54 PM 68.0 °F - 55.0 °F 63% 29.95 in 10.0 mi SSW 15.0 mph - N/A   Clear
8:54 PM 68.0 °F - 55.0 °F 63% 29.95 in 10.0 mi SSW 16.1 mph - N/A   Clear
9:54 PM 69.1 °F - 55.0 °F 61% 29.96 in 10.0 mi SSW 19.6 mph 24.2 mph N/A   Clear
10:54 PM 68.0 °F - 55.9 °F 65% 29.95 in 10.0 mi SSW 16.1 mph 23.0 mph N/A   Clear
11:54 PM 66.9 °F - 57.0 °F 70% 29.94 in 10.0 mi SSW 11.5 mph - N/A   Clear